Volver al catálogo

STARLINK-37210

ActivoComunicacionesVLEO
NORAD 68557·PAYLOAD·🇺🇸 United States

Lanzado Apr 2, 2026 desde Cape Canaveral Space Force Station

Loading…

Próximos Pases (próximas 24 horas)

TLE

ActualizadoSource: CelesTrak SupGP

Época: Sep 15, 2026, 03:42 UTC

1 68557C 26070R   26258.15465278 -.00039290  00000+0 -11610-2 0  2580
2 68557  53.1576 198.6149 0001295  85.0379  68.6429 15.34406907    12

Sigue STARLINK-37210 en tiempo real con AllMySat

Download on the App Store